パンスターズ彗星

C/2015 V1 ( PanSTARRS )

English version
Home page
Updated on February 13, 2018

---------------------------------------------------------------------

・ プロフィール

発見日 2015年11月2日
発見光度 20.2等
発見者 Pan-STARRS 1 telescope (Haleakala)

・ 写真集

・ 軌道要素

Epoch 2018 Jan. 2.0 TT = JDT 2458120.5
T 2017 Dec. 17.73523 TT                                 MPCW
q   4.2667965            (2000.0)            P               Q
z  -0.0001238      Peri.  179.63895     +0.95387893     +0.22988915
 +/-0.0000003      Node   197.19413     +0.27375761     -0.40230155
e   1.0005283      Incl.  139.22915     +0.12317367     -0.88617405
From 1839 observations 2015 Nov. 2-2018 Jan. 25, mean residual 0".4.

・ 星図

・ 光度変化

        m1 = 6.0 + 5 logΔ + 10.0 log r

---------------------------------------------------------------------

軌道要素はM.P.E.C. 2018-B155に掲載されたものです。
星図はステラナビゲータ Ver.8 (アストロアーツ) で作成したものです。
光度グラフはComet for Windowsで作成したものです。

---------------------------------------------------------------------

Copyright(C) Seiichi Yoshida (comet@aerith.net). All rights reserved.